Home   Weather   St. Augustine   Past weeks

Flag for USA Past Weather in St. Augustine, Florida, USA — Yesterday and Last 2 Weeks

Now
82 °F

Passing clouds.


Feels Like: 83 °F
Forecast: 62 / 77 °F
Wind: 16 mph from West

Location: St. Augustine Airport

Current Time: Jan 20, 2017 at 3:30:03 pm

Latest Report: Jan 20, 2017 at 2:58 pm


Visibility: 10 mi

Pressure: 29.88 "Hg

Humidity: 51%

Dew Point: 62 °F

Location of St. AugustineLocation

Past Weather in St. Augustine — Graph

°F

St. Augustine Temperature Yesterday

Maximum temperature yesterday: 73 °F (at 11:58 am)
Minimum temperature yesterday: 62 °F (at 4:58 am)
Average temperature yesterday: 66 °F

High & Low Weather Summary for the Past Weeks

 TemperatureHumidityPressure
High81 °F (Jan 20, 1:58 pm)100% (Jan 11, 4:02 am)30.66 "Hg (Jan 11, 4:02 am)
Low30 °F (Jan 8, 6:39 am)45% (Jan 5, 2:58 pm)29.85 "Hg (Jan 7, 4:02 am)
Average61 °F82%30.28 "Hg
* Reported Jan 5 1:58 pm — Jan 20 1:58 pm, St. Augustine, Weather by CustomWeather, © 2017

Note: Actual official high and low records may vary slightly from our data, if they occured in-between our weather recording intervals... More about our weather records

Advertising

St. Augustine Weather History for the Previous 24 Hours

Scroll right to see more
 ConditionsComfort  
Time TempWeatherWind HumidityBarometerVisibility
1:58 pm
Fri, Jan 20
81 °FPassing clouds.15 mph53%29.88 "Hg10 mi
12:58 pm79 °FSunny.15 mph56%29.90 "Hg10 mi
11:58 am76 °FSunny.13 mph60%29.93 "Hg10 mi
10:58 am74 °FSunny.12 mph64%29.96 "Hg10 mi
9:58 am70 °FSunny.10 mph73%29.97 "Hg10 mi
8:58 am67 °FSunny.7 mph79%29.95 "Hg10 mi
7:58 am65 °FSunny.6 mph85%29.93 "Hg10 mi
6:58 am63 °FClear.5 mph90%29.94 "Hg10 mi
5:58 am63 °FClear.5 mph90%29.94 "Hg10 mi
3:58 am63 °FClear.5 mph93%29.96 "Hg10 mi
2:58 am64 °FClear.6 mph94%29.97 "Hg10 mi
1:58 am64 °FClear.5 mph94%29.98 "Hg10 mi
12:58 am65 °FClear.5 mph94%29.97 "Hg10 mi
11:58 pm
Thu, Jan 19
65 °FPartly cloudy.5 mph94%29.99 "Hg10 mi
10:58 pm65 °FLight rain. Mostly cloudy.3 mph94%29.98 "Hg10 mi
10:41 pm64 °FMostly cloudy.3 mph94%29.99 "Hg10 mi
10:17 pm64 °FMostly cloudy.6 mph94%29.99 "Hg10 mi
10:02 pm66 °FMostly cloudy.6 mph88%29.99 "Hg10 mi
8:58 pm64 °FPassing clouds.No wind94%29.98 "Hg10 mi
7:58 pm63 °FClear.6 mph93%29.98 "Hg10 mi
6:58 pm64 °FClear.6 mph94%29.99 "Hg10 mi
5:58 pm66 °FClear.7 mph87%29.99 "Hg10 mi
4:58 pm68 °FSunny.6 mph82%29.99 "Hg10 mi
3:58 pm70 °FSunny.7 mph76%29.99 "Hg10 mi
Weather by CustomWeather, © 2017

See weather overviewHow to use our weather pages